Time,TemperatureF,DewpointF,PressureIn,WindDirection,WindDirectionDegrees,WindSpeedMPH,WindSpeedGustMPH,Humidity,HourlyPrecipIn,Conditions,Clouds,dailyrainin,SoftwareType,DateUTC
2013-11-10 00:00:00,45.8,25.1,29.97,SSW,207,4.0,6.0,44,0.00,,---,0.00,VWS V14.01,2013-11-10 05:00:00,
2013-11-10 00:01:00,45.8,25.1,29.97,SSW,207,3.0,5.0,44,0.00,,---,0.00,VWS V14.01,2013-11-10 05:01:00,
2013-11-10 00:06:00,46.0,25.3,29.97,SSW,192,4.0,6.0,44,0.00,,---,0.00,VWS V14.01,2013-11-10 05:06:00,
2013-11-10 00:11:00,46.2,25.0,29.97,SSW,209,5.0,5.0,43,0.00,,---,0.00,VWS V14.01,2013-11-10 05:11:00,
2013-11-10 00:16:00,46.5,24.7,29.97,SSW,196,4.0,7.0,42,0.00,,---,0.00,VWS V14.01,2013-11-10 05:16:00,
2013-11-10 00:21:00,46.2,25.0,29.96,South,184,1.0,4.0,43,0.00,,---,0.00,VWS V14.01,2013-11-10 05:21:00,
2013-11-10 00:26:00,46.5,24.7,29.96,SW,220,4.0,5.0,42,0.00,,---,0.00,VWS V14.01,2013-11-10 05:26:00,
2013-11-10 00:27:00,46.5,24.7,29.96,SW,219,5.0,5.0,42,0.00,,---,0.00,VWS V14.01,2013-11-10 05:27:00,
2013-11-10 00:31:00,46.4,25.1,29.96,South,175,5.0,6.0,43,0.00,,---,0.00,VWS V14.01,2013-11-10 05:31:00,
2013-11-10 00:32:00,46.4,25.1,29.96,South,189,2.0,4.0,43,0.00,,---,0.00,VWS V14.01,2013-11-10 05:32:00,
2013-11-10 00:36:00,46.2,25.5,29.96,SSW,197,1.0,13.0,44,0.00,,---,0.00,VWS V14.01,2013-11-10 05:36:00,
2013-11-10 00:37:00,46.2,25.5,29.96,South,182,4.0,5.0,44,0.00,,---,0.00,VWS V14.01,2013-11-10 05:37:00,
2013-11-10 00:41:00,46.4,25.7,29.96,SSW,196,3.0,5.0,44,0.00,,---,0.00,VWS V14.01,2013-11-10 05:41:00,
2013-11-10 00:42:00,46.2,25.5,29.96,SSW,197,5.0,5.0,44,0.00,,---,0.00,VWS V14.01,2013-11-10 05:42:00,
2013-11-10 00:46:00,46.2,25.0,29.96,SSW,194,4.0,6.0,43,0.00,,---,0.00,VWS V14.01,2013-11-10 05:46:00,
2013-11-10 00:47:00,46.4,25.1,29.96,SSW,213,4.0,6.0,43,0.00,,---,0.00,VWS V14.01,2013-11-10 05:47:00,
2013-11-10 00:51:00,46.5,25.2,29.96,SW,216,4.0,8.0,43,0.00,,---,0.00,VWS V14.01,2013-11-10 05:51:00,
2013-11-10 00:52:00,46.5,25.2,29.96,SSW,197,5.0,6.0,43,0.00,,---,0.00,VWS V14.01,2013-11-10 05:52:00,
2013-11-10 00:53:00,46.5,25.2,29.96,South,179,3.0,5.0,43,0.00,,---,0.00,VWS V14.01,2013-11-10 05:53:00,
2013-11-10 00:56:00,46.5,25.2,29.96,South,184,3.0,6.0,43,0.00,,---,0.00,VWS V14.01,2013-11-10 05:56:00,
2013-11-10 00:57:00,46.5,25.2,29.96,South,184,1.0,4.0,43,0.00,,---,0.00,VWS V14.01,2013-11-10 05:57:00,
2013-11-10 00:58:00,46.4,25.1,29.96,South,184,0.0,5.0,43,0.00,,---,0.00,VWS V14.01,2013-11-10 05:58:00,
2013-11-10 01:01:00,46.5,25.2,29.96,SSW,202,4.0,4.0,43,0.00,,---,0.00,VWS V14.01,2013-11-10 06:01:00,
2013-11-10 01:02:00,46.5,25.2,29.96,SSW,213,11.0,11.0,43,0.00,,---,0.00,VWS V14.01,2013-11-10 06:02:00,
2013-11-10 01:03:00,46.7,25.4,29.95,SSW,202,5.0,11.0,43,0.00,,---,0.00,VWS V14.01,2013-11-10 06:03:00,
2013-11-10 01:06:00,47.7,25.2,29.95,SSW,202,4.0,5.0,41,0.00,,---,0.00,VWS V14.01,2013-11-10 06:06:00,
2013-11-10 01:07:00,47.7,25.2,29.95,South,188,4.0,7.0,41,0.00,,---,0.00,VWS V14.01,2013-11-10 06:07:00,
2013-11-10 01:08:00,47.9,25.4,29.95,SSW,194,7.0,13.0,41,0.00,,---,0.00,VWS V14.01,2013-11-10 06:08:00,
2013-11-10 01:11:00,48.2,25.0,29.95,SSW,209,10.0,12.0,40,0.00,,---,0.00,VWS V14.01,2013-11-10 06:11:00,
2013-11-10 01:12:00,48.3,25.7,29.95,SSW,196,4.0,10.0,41,0.00,,---,0.00,VWS V14.01,2013-11-10 06:12:00,
2013-11-10 01:13:00,48.3,25.1,29.95,SSE,161,4.0,5.0,40,0.00,,---,0.00,VWS V14.01,2013-11-10 06:13:00,
2013-11-10 01:16:00,48.3,25.7,29.95,South,189,3.0,4.0,41,0.00,,---,0.00,VWS V14.01,2013-11-10 06:16:00,
2013-11-10 01:17:00,48.3,25.7,29.95,South,188,4.0,4.0,41,0.00,,---,0.00,VWS V14.01,2013-11-10 06:17:00,
2013-11-10 01:18:00,48.3,25.7,29.95,South,187,5.0,15.0,41,0.00,,---,0.00,VWS V14.01,2013-11-10 06:18:00,
2013-11-10 01:21:00,48.6,25.4,29.95,SSW,196,3.0,4.0,40,0.00,,---,0.00,VWS V14.01,2013-11-10 06:21:00,
2013-11-10 01:22:00,48.6,25.4,29.95,SSW,196,3.0,4.0,40,0.00,,---,0.00,VWS V14.01,2013-11-10 06:22:00,
2013-11-10 01:23:00,48.8,25.6,29.95,South,184,5.0,10.0,40,0.00,,---,0.00,VWS V14.01,2013-11-10 06:23:00,
2013-11-10 01:26:00,48.8,25.6,29.95,SSW,198,4.0,4.0,40,0.00,,---,0.00,VWS V14.01,2013-11-10 06:26:00,
2013-11-10 01:27:00,48.9,25.7,29.95,South,180,5.0,5.0,40,0.00,,---,0.00,VWS V14.01,2013-11-10 06:27:00,
2013-11-10 01:28:00,48.9,25.7,29.95,SSW,193,3.0,8.0,40,0.00,,---,0.00,VWS V14.01,2013-11-10 06:28:00,
2013-11-10 01:31:00,49.1,26.4,29.95,South,175,5.0,8.0,41,0.00,,---,0.00,VWS V14.01,2013-11-10 06:31:00,
2013-11-10 01:32:00,49.1,26.4,29.95,SW,222,3.0,8.0,41,0.00,,---,0.00,VWS V14.01,2013-11-10 06:32:00,
2013-11-10 01:33:00,49.2,25.3,29.95,SSW,205,3.0,7.0,39,0.00,,---,0.00,VWS V14.01,2013-11-10 06:33:00,
2013-11-10 01:36:00,49.4,26.1,29.95,SSW,196,5.0,5.0,40,0.00,,---,0.00,VWS V14.01,2013-11-10 06:36:00,
2013-11-10 01:37:00,49.4,26.1,29.95,SSW,207,2.0,5.0,40,0.00,,---,0.00,VWS V14.01,2013-11-10 06:37:00,
2013-11-10 01:38:00,49.4,26.1,29.95,SW,230,6.0,6.0,40,0.00,,---,0.00,VWS V14.01,2013-11-10 06:38:00,
2013-11-10 01:41:00,49.2,26.5,29.95,SSW,202,6.0,6.0,41,0.00,,---,0.00,VWS V14.01,2013-11-10 06:41:00,
2013-11-10 01:42:00,49.2,26.5,29.95,South,180,10.0,10.0,41,0.00,,---,0.00,VWS V14.01,2013-11-10 06:42:00,
2013-11-10 01:43:00,49.2,26.5,29.95,South,190,5.0,9.0,41,0.00,,---,0.00,VWS V14.01,2013-11-10 06:43:00,
2013-11-10 01:44:00,49.1,26.4,29.95,South,184,3.0,6.0,41,0.00,,---,0.00,VWS V14.01,2013-11-10 06:44:00,
2013-11-10 01:46:00,48.9,26.2,29.95,South,182,1.0,5.0,41,0.00,,---,0.00,VWS V14.01,2013-11-10 06:46:00,
2013-11-10 01:47:00,48.9,26.2,29.95,South,184,6.0,6.0,41,0.00,,---,0.00,VWS V14.01,2013-11-10 06:47:00,
2013-11-10 01:48:00,48.9,26.2,29.94,SW,229,11.0,18.0,41,0.00,,---,0.00,VWS V14.01,2013-11-10 06:48:00,
2013-11-10 01:49:00,48.9,26.2,29.94,SSW,205,12.0,13.0,41,0.00,,---,0.00,VWS V14.01,2013-11-10 06:49:00,
2013-11-10 01:51:00,49.4,26.7,29.94,SSW,200,10.0,10.0,41,0.00,,---,0.00,VWS V14.01,2013-11-10 06:51:00,
2013-11-10 01:52:00,49.4,26.7,29.94,SSW,212,6.0,10.0,41,0.00,,---,0.00,VWS V14.01,2013-11-10 06:52:00,
2013-11-10 01:53:00,49.4,26.7,29.94,SSW,209,4.0,6.0,41,0.00,,---,0.00,VWS V14.01,2013-11-10 06:53:00,
2013-11-10 01:54:00,49.4,26.7,29.94,SSW,213,5.0,6.0,41,0.00,,---,0.00,VWS V14.01,2013-11-10 06:54:00,
2013-11-10 01:56:00,49.2,26.5,29.94,SSW,196,3.0,9.0,41,0.00,,---,0.00,VWS V14.01,2013-11-10 06:56:00,
2013-11-10 01:57:00,49.4,26.7,29.94,South,184,4.0,11.0,41,0.00,,---,0.00,VWS V14.01,2013-11-10 06:57:00,
2013-11-10 01:58:00,49.5,26.8,29.94,South,186,0.0,6.0,41,0.00,,---,0.00,VWS V14.01,2013-11-10 06:58:00,
2013-11-10 01:59:00,49.5,26.2,29.94,SSW,199,5.0,5.0,40,0.00,,---,0.00,VWS V14.01,2013-11-10 06:59:00,
2013-11-10 02:01:00,49.4,26.7,29.94,SSW,194,0.0,3.0,41,0.00,,---,0.00,VWS V14.01,2013-11-10 07:01:00,
2013-11-10 02:02:00,49.4,26.7,29.94,SSW,207,5.0,5.0,41,0.00,,---,0.00,VWS V14.01,2013-11-10 07:02:00,
2013-11-10 02:03:00,49.4,26.7,29.94,SSW,200,7.0,10.0,41,0.00,,---,0.00,VWS V14.01,2013-11-10 07:03:00,
2013-11-10 02:04:00,49.4,26.7,29.94,South,186,4.0,12.0,41,0.00,,---,0.00,VWS V14.01,2013-11-10 07:04:00,
2013-11-10 02:06:00,49.5,26.8,29.94,SW,228,5.0,14.0,41,0.00,,---,0.00,VWS V14.01,2013-11-10 07:06:00,
2013-11-10 02:07:00,49.5,27.4,29.94,SSW,213,7.0,7.0,42,0.00,,---,0.00,VWS V14.01,2013-11-10 07:07:00,
2013-11-10 02:08:00,49.5,26.8,29.94,SW,215,7.0,7.0,41,0.00,,---,0.00,VWS V14.01,2013-11-10 07:08:00,
2013-11-10 02:09:00,49.4,26.7,29.94,SW,220,5.0,5.0,41,0.00,,---,0.00,VWS V14.01,2013-11-10 07:09:00,
2013-11-10 02:11:00,49.8,27.1,29.94,SSW,205,5.0,10.0,41,0.00,,---,0.00,VWS V14.01,2013-11-10 07:11:00,
2013-11-10 02:12:00,49.8,27.1,29.94,SSW,204,5.0,5.0,41,0.00,,---,0.00,VWS V14.01,2013-11-10 07:12:00,
2013-11-10 02:13:00,49.8,27.1,29.94,SSW,207,5.0,5.0,41,0.00,,---,0.00,VWS V14.01,2013-11-10 07:13:00,
2013-11-10 02:14:00,49.8,27.1,29.94,SSW,195,3.0,9.0,41,0.00,,---,0.00,VWS V14.01,2013-11-10 07:14:00,
2013-11-10 02:16:00,49.4,27.3,29.94,South,181,5.0,10.0,42,0.00,,---,0.00,VWS V14.01,2013-11-10 07:16:00,
2013-11-10 02:17:00,49.4,27.3,29.94,South,175,8.0,8.0,42,0.00,,---,0.00,VWS V14.01,2013-11-10 07:17:00,
2013-11-10 02:18:00,49.4,27.3,29.94,South,190,2.0,9.0,42,0.00,,---,0.00,VWS V14.01,2013-11-10 07:18:00,
2013-11-10 02:19:00,49.4,27.9,29.94,South,169,6.0,9.0,43,0.00,,---,0.00,VWS V14.01,2013-11-10 07:19:00,
2013-11-10 02:22:00,49.2,27.1,29.94,SSW,200,5.0,7.0,42,0.00,,---,0.00,VWS V14.01,2013-11-10 07:22:00,
2013-11-10 02:23:00,49.2,27.1,29.94,South,191,6.0,9.0,42,0.00,,---,0.00,VWS V14.01,2013-11-10 07:23:00,
2013-11-10 02:24:00,49.2,27.7,29.94,South,188,5.0,5.0,43,0.00,,---,0.00,VWS V14.01,2013-11-10 07:24:00,
2013-11-10 02:25:00,49.2,27.7,29.94,South,188,5.0,5.0,43,0.00,,---,0.00,VWS V14.01,2013-11-10 07:25:00,
2013-11-10 02:27:00,49.1,27.6,29.94,South,186,4.0,7.0,43,0.00,,---,0.00,VWS V14.01,2013-11-10 07:27:00,
2013-11-10 02:28:00,49.1,28.1,29.94,SSW,205,7.0,7.0,44,0.00,,---,0.00,VWS V14.01,2013-11-10 07:28:00,
2013-11-10 02:29:00,49.1,28.1,29.94,SSW,206,3.0,7.0,44,0.00,,---,0.00,VWS V14.01,2013-11-10 07:29:00,
2013-11-10 02:30:00,49.1,27.6,29.94,SSW,207,5.0,10.0,43,0.00,,---,0.00,VWS V14.01,2013-11-10 07:30:00,
2013-11-10 02:32:00,48.9,27.4,29.94,SSW,213,6.0,6.0,43,0.00,,---,0.00,VWS V14.01,2013-11-10 07:32:00,
2013-11-10 02:33:00,48.9,28.0,29.93,South,187,4.0,9.0,44,0.00,,---,0.00,VWS V14.01,2013-11-10 07:33:00,
2013-11-10 02:34:00,48.9,28.0,29.93,SW,224,5.0,9.0,44,0.00,,---,0.00,VWS V14.01,2013-11-10 07:34:00,
2013-11-10 02:35:00,48.8,27.9,29.93,SSW,211,14.0,14.0,44,0.00,,---,0.00,VWS V14.01,2013-11-10 07:35:00,
2013-11-10 02:37:00,48.8,27.9,29.93,SSW,207,8.0,11.0,44,0.00,,---,0.00,VWS V14.01,2013-11-10 07:37:00,
2013-11-10 02:38:00,48.9,27.4,29.93,South,185,3.0,6.0,43,0.00,,---,0.00,VWS V14.01,2013-11-10 07:38:00,
2013-11-10 02:39:00,48.9,27.4,29.93,SSW,194,9.0,9.0,43,0.00,,---,0.00,VWS V14.01,2013-11-10 07:39:00,
2013-11-10 02:40:00,49.1,28.1,29.93,SW,229,5.0,7.0,44,0.00,,---,0.00,VWS V14.01,2013-11-10 07:40:00,
2013-11-10 02:42:00,48.8,28.4,29.93,SW,215,3.0,5.0,45,0.00,,---,0.00,VWS V14.01,2013-11-10 07:42:00,
2013-11-10 02:43:00,48.8,27.9,29.93,SW,215,2.0,2.0,44,0.00,,---,0.00,VWS V14.01,2013-11-10 07:43:00,
2013-11-10 02:44:00,48.6,27.7,29.93,SW,215,2.0,3.0,44,0.00,,---,0.00,VWS V14.01,2013-11-10 07:44:00,
2013-11-10 02:45:00,48.6,27.7,29.93,SSW,204,10.0,11.0,44,0.00,,---,0.00,VWS V14.01,2013-11-10 07:45:00,
2013-11-10 02:47:00,48.5,28.1,29.93,SSW,203,6.0,7.0,45,0.00,,---,0.00,VWS V14.01,2013-11-10 07:47:00,
2013-11-10 02:48:00,48.5,28.1,29.93,SSW,205,4.0,4.0,45,0.00,,---,0.00,VWS V14.01,2013-11-10 07:48:00,
2013-11-10 02:49:00,48.5,28.1,29.93,SSW,205,0.0,4.0,45,0.00,,---,0.00,VWS V14.01,2013-11-10 07:49:00,
2013-11-10 02:50:00,48.5,28.1,29.93,SSW,205,0.0,2.0,45,0.00,,---,0.00,VWS V14.01,2013-11-10 07:50:00,
2013-11-10 02:52:00,48.3,28.0,29.93,SSW,206,5.0,6.0,45,0.00,,---,0.00,VWS V14.01,2013-11-10 07:52:00,
2013-11-10 02:53:00,48.2,27.9,29.93,SSW,192,1.0,7.0,45,0.00,,---,0.00,VWS V14.01,2013-11-10 07:53:00,
2013-11-10 02:54:00,48.0,27.7,29.93,South,191,0.0,5.0,45,0.00,,---,0.00,VWS V14.01,2013-11-10 07:54:00,
2013-11-10 02:55:00,48.0,27.7,29.93,SSW,213,4.0,5.0,45,0.00,,---,0.00,VWS V14.01,2013-11-10 07:55:00,
2013-11-10 02:57:00,48.0,27.7,29.93,SW,215,6.0,8.0,45,0.00,,---,0.00,VWS V14.01,2013-11-10 07:57:00,
2013-11-10 02:58:00,47.9,27.6,29.93,SSW,209,7.0,8.0,45,0.00,,---,0.00,VWS V14.01,2013-11-10 07:58:00,
2013-11-10 02:59:00,47.7,28.0,29.93,SSW,195,1.0,2.0,46,0.00,,---,0.00,VWS V14.01,2013-11-10 07:59:00,
2013-11-10 03:00:00,47.7,28.0,29.93,SSW,195,0.0,3.0,46,0.00,,---,0.00,VWS V14.01,2013-11-10 08:00:00,
2013-11-10 03:02:00,47.6,27.9,29.93,SSW,200,4.0,4.0,46,0.00,,---,0.00,VWS V14.01,2013-11-10 08:02:00,
2013-11-10 03:03:00,47.4,27.7,29.94,SSW,197,4.0,5.0,46,0.00,,---,0.00,VWS V14.01,2013-11-10 08:03:00,
2013-11-10 03:04:00,47.4,28.2,29.94,SSW,213,1.0,1.0,47,0.00,,---,0.00,VWS V14.01,2013-11-10 08:04:00,
2013-11-10 03:05:00,47.3,28.1,29.94,SSW,207,3.0,6.0,47,0.00,,---,0.00,VWS V14.01,2013-11-10 08:05:00,
2013-11-10 03:07:00,47.3,28.1,29.94,South,188,2.0,5.0,47,0.00,,---,0.00,VWS V14.01,2013-11-10 08:07:00,
2013-11-10 03:08:00,47.1,27.9,29.94,SSW,209,3.0,4.0,47,0.00,,---,0.00,VWS V14.01,2013-11-10 08:08:00,
2013-11-10 03:09:00,46.8,28.7,29.94,SSW,203,2.0,2.0,49,0.00,,---,0.00,VWS V14.01,2013-11-10 08:09:00,
2013-11-10 03:10:00,46.7,28.1,29.94,SSW,205,2.0,4.0,48,0.00,,---,0.00,VWS V14.01,2013-11-10 08:10:00,
2013-11-10 03:12:00,46.5,27.9,29.94,SSW,205,0.0,0.0,48,0.00,,---,0.00,VWS V14.01,2013-11-10 08:12:00,
2013-11-10 03:13:00,46.5,27.9,29.94,SSW,205,0.0,0.0,48,0.00,,---,0.00,VWS V14.01,2013-11-10 08:13:00,
2013-11-10 03:14:00,46.5,27.9,29.94,SSW,205,2.0,3.0,48,0.00,,---,0.00,VWS V14.01,2013-11-10 08:14:00,
2013-11-10 03:15:00,46.7,28.1,29.94,SSW,205,2.0,2.0,48,0.00,,---,0.00,VWS V14.01,2013-11-10 08:15:00,
2013-11-10 03:16:00,46.7,28.1,29.94,SSW,205,3.0,3.0,48,0.00,,---,0.00,VWS V14.01,2013-11-10 08:16:00,
2013-11-10 03:17:00,46.8,28.2,29.94,SSW,199,1.0,4.0,48,0.00,,---,0.00,VWS V14.01,2013-11-10 08:17:00,
2013-11-10 03:18:00,46.8,28.2,29.94,SW,231,5.0,7.0,48,0.00,,---,0.00,VWS V14.01,2013-11-10 08:18:00,
2013-11-10 03:19:00,47.0,28.3,29.94,SW,231,3.0,3.0,48,0.00,,---,0.00,VWS V14.01,2013-11-10 08:19:00,
2013-11-10 03:21:00,47.0,28.3,29.94,SW,231,0.0,3.0,48,0.00,,---,0.00,VWS V14.01,2013-11-10 08:21:00,
2013-11-10 03:22:00,47.0,28.9,29.94,SW,230,6.0,6.0,49,0.00,,---,0.00,VWS V14.01,2013-11-10 08:22:00,
2013-11-10 03:23:00,47.0,28.9,29.94,South,178,3.0,8.0,49,0.00,,---,0.00,VWS V14.01,2013-11-10 08:23:00,
2013-11-10 03:24:00,47.1,28.9,29.94,South,178,1.0,1.0,49,0.00,,---,0.00,VWS V14.01,2013-11-10 08:24:00,
2013-11-10 03:26:00,47.1,28.9,29.94,South,178,0.0,2.0,49,0.00,,---,0.00,VWS V14.01,2013-11-10 08:26:00,
2013-11-10 03:27:00,47.0,28.9,29.94,South,178,0.0,1.0,49,0.00,,---,0.00,VWS V14.01,2013-11-10 08:27:00,
2013-11-10 03:28:00,46.8,28.7,29.94,South,178,0.0,4.0,49,0.00,,---,0.00,VWS V14.01,2013-11-10 08:28:00,
2013-11-10 03:29:00,46.8,28.7,29.94,South,178,0.0,1.0,49,0.00,,---,0.00,VWS V14.01,2013-11-10 08:29:00,
2013-11-10 03:31:00,46.8,29.2,29.94,SSW,194,1.0,5.0,50,0.00,,---,0.00,VWS V14.01,2013-11-10 08:31:00,
2013-11-10 03:32:00,46.8,29.6,29.94,SSW,194,3.0,4.0,51,0.00,,---,0.00,VWS V14.01,2013-11-10 08:32:00,
2013-11-10 03:33:00,46.8,29.6,29.94,SSW,194,0.0,5.0,51,0.00,,---,0.00,VWS V14.01,2013-11-10 08:33:00,
2013-11-10 03:34:00,46.8,29.6,29.94,South,187,2.0,9.0,51,0.00,,---,0.00,VWS V14.01,2013-11-10 08:34:00,
2013-11-10 03:36:00,46.7,30.0,29.94,SSW,211,0.0,7.0,52,0.00,,---,0.00,VWS V14.01,2013-11-10 08:36:00,
2013-11-10 03:37:00,47.0,30.3,29.94,SW,223,5.0,10.0,52,0.00,,---,0.00,VWS V14.01,2013-11-10 08:37:00,
2013-11-10 03:38:00,47.3,30.6,29.94,SW,225,0.0,5.0,52,0.00,,---,0.00,VWS V14.01,2013-11-10 08:38:00,
2013-11-10 03:39:00,47.6,30.9,29.94,SW,221,0.0,4.0,52,0.00,,---,0.00,VWS V14.01,2013-11-10 08:39:00,
2013-11-10 03:41:00,48.5,31.2,29.94,WSW,242,3.0,5.0,51,0.00,,---,0.00,VWS V14.01,2013-11-10 08:41:00,
2013-11-10 03:42:00,48.8,31.5,29.94,WNW,283,0.0,6.0,51,0.00,,---,0.00,VWS V14.01,2013-11-10 08:42:00,
2013-11-10 03:43:00,48.9,31.6,29.94,SSW,193,6.0,6.0,51,0.00,,---,0.00,VWS V14.01,2013-11-10 08:43:00,
2013-11-10 03:44:00,49.2,31.9,29.94,South,180,0.0,4.0,51,0.00,,---,0.00,VWS V14.01,2013-11-10 08:44:00,
2013-11-10 03:45:00,49.5,31.6,29.94,West,265,0.0,2.0,50,0.00,,---,0.00,VWS V14.01,2013-11-10 08:45:00,
2013-11-10 03:46:00,50.1,32.2,29.94,WSW,252,5.0,7.0,50,0.00,,---,0.00,VWS V14.01,2013-11-10 08:46:00,
2013-11-10 03:47:00,50.4,32.5,29.94,West,259,5.0,7.0,50,0.00,,---,0.00,VWS V14.01,2013-11-10 08:47:00,
2013-11-10 03:48:00,50.5,32.1,29.93,SW,226,4.0,9.0,49,0.00,,---,0.00,VWS V14.01,2013-11-10 08:48:00,
2013-11-10 03:49:00,50.8,32.3,29.93,WNW,284,9.0,12.0,49,0.00,,---,0.00,VWS V14.01,2013-11-10 08:49:00,
2013-11-10 03:50:00,51.1,32.6,29.93,WNW,300,3.0,7.0,49,0.00,,---,0.00,VWS V14.01,2013-11-10 08:50:00,
2013-11-10 03:51:00,51.4,32.4,29.93,SW,234,1.0,9.0,48,0.00,,---,0.00,VWS V14.01,2013-11-10 08:51:00,
2013-11-10 03:52:00,51.7,32.7,29.93,SSE,163,1.0,9.0,48,0.00,,---,0.00,VWS V14.01,2013-11-10 08:52:00,
2013-11-10 03:53:00,51.9,32.3,29.93,SSW,208,4.0,11.0,47,0.00,,---,0.00,VWS V14.01,2013-11-10 08:53:00,
2013-11-10 03:54:00,52.0,32.4,29.93,SW,223,2.0,10.0,47,0.00,,---,0.00,VWS V14.01,2013-11-10 08:54:00,
2013-11-10 03:55:00,52.2,32.6,29.93,WSW,244,10.0,10.0,47,0.00,,---,0.00,VWS V14.01,2013-11-10 08:55:00,
2013-11-10 03:56:00,52.3,32.7,29.93,WSW,257,1.0,2.0,47,0.00,,---,0.00,VWS V14.01,2013-11-10 08:56:00,
2013-11-10 03:57:00,52.3,32.7,29.93,SW,236,2.0,10.0,47,0.00,,---,0.00,VWS V14.01,2013-11-10 08:57:00,
2013-11-10 03:58:00,52.2,33.1,29.93,WSW,242,4.0,6.0,48,0.00,,---,0.00,VWS V14.01,2013-11-10 08:58:00,
2013-11-10 03:59:00,52.2,32.6,29.93,WSW,245,0.0,6.0,47,0.00,,---,0.00,VWS V14.01,2013-11-10 08:59:00,
2013-11-10 04:01:00,52.0,32.9,29.93,WSW,244,0.0,2.0,48,0.00,,---,0.00,VWS V14.01,2013-11-10 09:01:00,
2013-11-10 04:02:00,51.9,32.8,29.93,SW,229,2.0,10.0,48,0.00,,---,0.00,VWS V14.01,2013-11-10 09:02:00,
2013-11-10 04:03:00,52.0,32.9,29.93,WSW,248,5.0,10.0,48,0.00,,---,0.00,VWS V14.01,2013-11-10 09:03:00,
2013-11-10 04:04:00,52.0,32.9,29.93,West,274,7.0,9.0,48,0.00,,---,0.00,VWS V14.01,2013-11-10 09:04:00,
2013-11-10 04:06:00,52.0,32.9,29.93,SW,234,0.0,6.0,48,0.00,,---,0.00,VWS V14.01,2013-11-10 09:06:00,
2013-11-10 04:07:00,52.0,32.9,29.93,WSW,245,3.0,5.0,48,0.00,,---,0.00,VWS V14.01,2013-11-10 09:07:00,
2013-11-10 04:08:00,51.9,32.8,29.93,West,279,0.0,2.0,48,0.00,,---,0.00,VWS V14.01,2013-11-10 09:08:00,
2013-11-10 04:09:00,51.9,32.8,29.93,West,265,0.0,12.0,48,0.00,,---,0.00,VWS V14.01,2013-11-10 09:09:00,
2013-11-10 04:11:00,51.7,33.2,29.93,WNW,284,4.0,7.0,49,0.00,,---,0.00,VWS V14.01,2013-11-10 09:11:00,
2013-11-10 04:12:00,51.7,33.2,29.93,SW,215,0.0,0.0,49,0.00,,---,0.00,VWS V14.01,2013-11-10 09:12:00,
2013-11-10 04:13:00,51.7,33.2,29.93,SSW,212,6.0,6.0,49,0.00,,---,0.00,VWS V14.01,2013-11-10 09:13:00,
2013-11-10 04:14:00,51.7,33.2,29.93,SW,234,5.0,14.0,49,0.00,,---,0.00,VWS V14.01,2013-11-10 09:14:00,
2013-11-10 04:16:00,51.7,33.2,29.93,SW,229,4.0,4.0,49,0.00,,---,0.00,VWS V14.01,2013-11-10 09:16:00,
2013-11-10 04:17:00,51.7,33.2,29.93,SW,231,0.0,4.0,49,0.00,,---,0.00,VWS V14.01,2013-11-10 09:17:00,
2013-11-10 04:18:00,51.7,33.2,29.93,SSW,213,3.0,4.0,49,0.00,,---,0.00,VWS V14.01,2013-11-10 09:18:00,
2013-11-10 04:19:00,51.9,32.8,29.93,WSW,249,0.0,5.0,48,0.00,,---,0.00,VWS V14.01,2013-11-10 09:19:00,
2013-11-10 04:21:00,51.9,32.8,29.93,WNW,288,0.0,0.0,48,0.00,,---,0.00,VWS V14.01,2013-11-10 09:21:00,
2013-11-10 04:22:00,51.9,32.8,29.93,SW,234,0.0,3.0,48,0.00,,---,0.00,VWS V14.01,2013-11-10 09:22:00,
2013-11-10 04:23:00,51.9,32.8,29.93,NW,306,1.0,1.0,48,0.00,,---,0.00,VWS V14.01,2013-11-10 09:23:00,
2013-11-10 04:24:00,51.9,32.8,29.93,NW,306,0.0,2.0,48,0.00,,---,0.00,VWS V14.01,2013-11-10 09:24:00,
2013-11-10 04:26:00,51.9,32.8,29.93,West,259,6.0,14.0,48,0.00,,---,0.00,VWS V14.01,2013-11-10 09:26:00,
2013-11-10 04:27:00,51.9,32.8,29.93,West,265,6.0,19.0,48,0.00,,---,0.00,VWS V14.01,2013-11-10 09:27:00,
2013-11-10 04:28:00,51.9,32.8,29.93,West,262,13.0,13.0,48,0.00,,---,0.00,VWS V14.01,2013-11-10 09:28:00,
2013-11-10 04:29:00,51.9,33.4,29.93,WNW,289,5.0,15.0,49,0.00,,---,0.00,VWS V14.01,2013-11-10 09:29:00,
2013-11-10 04:32:00,51.7,33.2,29.93,SW,221,0.0,3.0,49,0.00,,---,0.00,VWS V14.01,2013-11-10 09:32:00,
2013-11-10 04:33:00,51.9,33.4,29.94,West,273,3.0,8.0,49,0.00,,---,0.00,VWS V14.01,2013-11-10 09:33:00,
2013-11-10 04:34:00,51.9,32.8,29.94,WNW,290,4.0,8.0,48,0.00,,---,0.00,VWS V14.01,2013-11-10 09:34:00,
2013-11-10 04:37:00,52.0,32.9,29.94,SSW,211,7.0,9.0,48,0.00,,---,0.00,VWS V14.01,2013-11-10 09:37:00,
2013-11-10 04:38:00,52.0,32.9,29.94,SW,227,6.0,11.0,48,0.00,,---,0.00,VWS V14.01,2013-11-10 09:38:00,
2013-11-10 04:39:00,52.0,32.9,29.94,SSW,211,2.0,11.0,48,0.00,,---,0.00,VWS V14.01,2013-11-10 09:39:00,
2013-11-10 04:42:00,52.0,32.9,29.94,WSW,237,5.0,12.0,48,0.00,,---,0.00,VWS V14.01,2013-11-10 09:42:00,
2013-11-10 04:43:00,51.9,32.8,29.94,SW,227,2.0,5.0,48,0.00,,---,0.00,VWS V14.01,2013-11-10 09:43:00,
2013-11-10 04:44:00,51.9,33.4,29.94,SW,227,0.0,0.0,49,0.00,,---,0.00,VWS V14.01,2013-11-10 09:44:00,
2013-11-10 04:47:00,51.6,33.1,29.94,SW,229,8.0,11.0,49,0.00,,---,0.00,VWS V14.01,2013-11-10 09:47:00,
2013-11-10 04:48:00,51.6,33.6,29.94,SSW,209,4.0,9.0,50,0.00,,---,0.00,VWS V14.01,2013-11-10 09:48:00,
2013-11-10 04:49:00,51.6,33.1,29.94,SSW,209,3.0,4.0,49,0.00,,---,0.00,VWS V14.01,2013-11-10 09:49:00,
2013-11-10 04:52:00,51.6,33.6,29.94,WSW,253,5.0,7.0,50,0.00,,---,0.00,VWS V14.01,2013-11-10 09:52:00,
2013-11-10 04:53:00,51.4,33.4,29.94,West,259,2.0,5.0,50,0.00,,---,0.00,VWS V14.01,2013-11-10 09:53:00,
2013-11-10 04:54:00,51.4,33.4,29.94,SW,215,6.0,6.0,50,0.00,,---,0.00,VWS V14.01,2013-11-10 09:54:00,
2013-11-10 04:57:00,51.4,33.4,29.94,West,277,2.0,7.0,50,0.00,,---,0.00,VWS V14.01,2013-11-10 09:57:00,
2013-11-10 04:58:00,51.4,33.4,29.94,WSW,244,5.0,6.0,50,0.00,,---,0.00,VWS V14.01,2013-11-10 09:58:00,
2013-11-10 04:59:00,51.4,33.4,29.94,SW,219,3.0,7.0,50,0.00,,---,0.00,VWS V14.01,2013-11-10 09:59:00,
2013-11-10 05:02:00,51.6,33.6,29.94,WSW,254,12.0,12.0,50,0.00,,---,0.00,VWS V14.01,2013-11-10 10:02:00,
2013-11-10 05:03:00,51.6,33.6,29.94,SSW,203,5.0,12.0,50,0.00,,---,0.00,VWS V14.01,2013-11-10 10:03:00,
2013-11-10 05:04:00,51.6,33.6,29.94,SSW,198,3.0,10.0,50,0.00,,---,0.00,VWS V14.01,2013-11-10 10:04:00,
2013-11-10 05:05:00,51.6,33.6,29.94,SW,234,5.0,10.0,50,0.00,,---,0.00,VWS V14.01,2013-11-10 10:05:00,
2013-11-10 05:07:00,51.6,33.6,29.94,SSW,196,9.0,9.0,50,0.00,,---,0.00,VWS V14.01,2013-11-10 10:07:00,
2013-11-10 05:08:00,51.6,33.6,29.94,West,269,3.0,9.0,50,0.00,,---,0.00,VWS V14.01,2013-11-10 10:08:00,
2013-11-10 05:09:00,51.6,33.6,29.94,West,277,3.0,4.0,50,0.00,,---,0.00,VWS V14.01,2013-11-10 10:09:00,
2013-11-10 05:10:00,51.7,33.2,29.94,SW,223,0.0,4.0,49,0.00,,---,0.00,VWS V14.01,2013-11-10 10:10:00,
2013-11-10 05:11:00,51.7,33.2,29.94,SW,234,5.0,8.0,49,0.00,,---,0.00,VWS V14.01,2013-11-10 10:11:00,
2013-11-10 05:12:00,51.7,33.2,29.94,SW,219,4.0,4.0,49,0.00,,---,0.00,VWS V14.01,2013-11-10 10:12:00,
2013-11-10 05:13:00,51.7,33.2,29.94,SW,223,1.0,5.0,49,0.00,,---,0.00,VWS V14.01,2013-11-10 10:13:00,
2013-11-10 05:14:00,51.7,33.2,29.94,WSW,253,6.0,15.0,49,0.00,,---,0.00,VWS V14.01,2013-11-10 10:14:00,
2013-11-10 05:15:00,51.7,33.2,29.94,WNW,290,7.0,15.0,49,0.00,,---,0.00,VWS V14.01,2013-11-10 10:15:00,
2013-11-10 05:16:00,51.7,33.7,29.94,WSW,247,6.0,8.0,50,0.00,,---,0.00,VWS V14.01,2013-11-10 10:16:00,
2013-11-10 05:17:00,51.7,33.2,29.94,West,259,5.0,9.0,49,0.00,,---,0.00,VWS V14.01,2013-11-10 10:17:00,
2013-11-10 05:18:00,51.9,33.4,29.94,WSW,248,2.0,9.0,49,0.00,,---,0.00,VWS V14.01,2013-11-10 10:18:00,
2013-11-10 05:19:00,51.7,33.7,29.94,West,271,7.0,7.0,50,0.00,,---,0.00,VWS V14.01,2013-11-10 10:19:00,
2013-11-10 05:20:00,51.7,33.7,29.94,West,263,4.0,7.0,50,0.00,,---,0.00,VWS V14.01,2013-11-10 10:20:00,
2013-11-10 05:21:00,51.7,33.7,29.94,WSW,252,1.0,5.0,50,0.00,,---,0.00,VWS V14.01,2013-11-10 10:21:00,
2013-11-10 05:22:00,51.6,33.6,29.94,SSW,203,1.0,1.0,50,0.00,,---,0.00,VWS V14.01,2013-11-10 10:22:00,
2013-11-10 05:23:00,51.6,34.1,29.94,SSW,203,0.0,2.0,51,0.00,,---,0.00,VWS V14.01,2013-11-10 10:23:00,
2013-11-10 05:25:00,51.4,33.4,29.94,WSW,246,0.0,2.0,50,0.00,,---,0.00,VWS V14.01,2013-11-10 10:25:00,
2013-11-10 05:26:00,51.4,33.4,29.94,SSW,205,5.0,7.0,50,0.00,,---,0.00,VWS V14.01,2013-11-10 10:26:00,
2013-11-10 05:27:00,51.4,33.4,29.94,SW,227,5.0,7.0,50,0.00,,---,0.00,VWS V14.01,2013-11-10 10:27:00,
2013-11-10 05:28:00,51.4,33.4,29.94,SW,227,5.0,7.0,50,0.00,,---,0.00,VWS V14.01,2013-11-10 10:28:00,
2013-11-10 05:30:00,51.6,33.6,29.94,WSW,252,2.0,5.0,50,0.00,,---,0.00,VWS V14.01,2013-11-10 10:30:00,
2013-11-10 05:31:00,51.6,33.6,29.94,West,281,6.0,6.0,50,0.00,,---,0.00,VWS V14.01,2013-11-10 10:31:00,
2013-11-10 05:33:00,51.6,33.6,29.94,SW,230,0.0,3.0,50,0.00,,---,0.00,VWS V14.01,2013-11-10 10:33:00,
2013-11-10 05:35:00,51.3,33.8,29.94,WSW,240,2.0,6.0,51,0.00,,---,0.00,VWS V14.01,2013-11-10 10:35:00,
2013-11-10 05:36:00,51.3,33.8,29.94,SSW,213,0.0,5.0,51,0.00,,---,0.00,VWS V14.01,2013-11-10 10:36:00,
2013-11-10 05:38:00,51.3,33.8,29.94,WSW,243,7.0,7.0,51,0.00,,---,0.00,VWS V14.01,2013-11-10 10:38:00,
2013-11-10 05:40:00,51.1,33.6,29.94,WNW,287,5.0,7.0,51,0.00,,---,0.00,VWS V14.01,2013-11-10 10:40:00,
2013-11-10 05:41:00,51.1,33.6,29.94,West,270,8.0,8.0,51,0.00,,---,0.00,VWS V14.01,2013-11-10 10:41:00,
2013-11-10 05:43:00,51.1,33.6,29.94,West,259,0.0,3.0,51,0.00,,---,0.00,VWS V14.01,2013-11-10 10:43:00,
2013-11-10 05:44:00,51.1,33.6,29.94,SW,224,6.0,6.0,51,0.00,,---,0.00,VWS V14.01,2013-11-10 10:44:00,
2013-11-10 05:45:00,51.0,33.5,29.94,West,274,6.0,10.0,51,0.00,,---,0.00,VWS V14.01,2013-11-10 10:45:00,
2013-11-10 05:46:00,50.8,33.8,29.94,SW,236,3.0,7.0,52,0.00,,---,0.00,VWS V14.01,2013-11-10 10:46:00,
2013-11-10 05:48:00,50.8,33.8,29.94,WSW,248,4.0,10.0,52,0.00,,---,0.00,VWS V14.01,2013-11-10 10:48:00,
2013-11-10 05:49:00,50.7,33.7,29.94,SW,233,0.0,4.0,52,0.00,,---,0.00,VWS V14.01,2013-11-10 10:49:00,
2013-11-10 05:50:00,50.7,33.7,29.94,South,184,3.0,3.0,52,0.00,,---,0.00,VWS V14.01,2013-11-10 10:50:00,
2013-11-10 05:51:00,50.5,33.5,29.94,SSW,205,4.0,7.0,52,0.00,,---,0.00,VWS V14.01,2013-11-10 10:51:00,
2013-11-10 05:53:00,50.5,33.5,29.94,WSW,240,2.0,6.0,52,0.00,,---,0.00,VWS V14.01,2013-11-10 10:53:00,
2013-11-10 05:54:00,50.5,33.5,29.94,WSW,240,0.0,3.0,52,0.00,,---,0.00,VWS V14.01,2013-11-10 10:54:00,
2013-11-10 05:55:00,50.5,33.5,29.94,SW,220,5.0,6.0,52,0.00,,---,0.00,VWS V14.01,2013-11-10 10:55:00,
2013-11-10 05:56:00,50.4,33.5,29.94,SW,219,2.0,3.0,52,0.00,,---,0.00,VWS V14.01,2013-11-10 10:56:00,
2013-11-10 05:57:00,50.4,33.5,29.94,South,179,3.0,10.0,52,0.00,,---,0.00,VWS V14.01,2013-11-10 10:57:00,
2013-11-10 05:58:00,50.4,33.5,29.94,SW,219,3.0,3.0,52,0.00,,---,0.00,VWS V14.01,2013-11-10 10:58:00,
2013-11-10 05:59:00,50.4,33.5,29.94,West,265,3.0,5.0,52,0.00,,---,0.00,VWS V14.01,2013-11-10 10:59:00,
2013-11-10 06:00:00,50.2,33.3,29.94,WSW,237,4.0,6.0,52,0.00,,---,0.00,VWS V14.01,2013-11-10 11:00:00,
2013-11-10 06:01:00,50.2,33.7,29.94,SW,215,3.0,3.0,53,0.00,,---,0.00,VWS V14.01,2013-11-10 11:01:00,
2013-11-10 06:02:00,50.2,33.7,29.94,SSW,207,4.0,4.0,53,0.00,,---,0.00,VWS V14.01,2013-11-10 11:02:00,
2013-11-10 06:03:00,50.2,33.7,29.94,SSW,207,0.0,3.0,53,0.00,,---,0.00,VWS V14.01,2013-11-10 11:03:00,
2013-11-10 06:04:00,50.1,33.7,29.94,SSW,207,1.0,1.0,53,0.00,,---,0.00,VWS V14.01,2013-11-10 11:04:00,
2013-11-10 06:05:00,50.1,33.7,29.94,SW,236,9.0,9.0,53,0.00,,---,0.00,VWS V14.01,2013-11-10 11:05:00,
2013-11-10 06:06:00,50.1,33.7,29.94,WSW,251,8.0,8.0,53,0.00,,---,0.00,VWS V14.01,2013-11-10 11:06:00,
2013-11-10 06:07:00,50.1,33.7,29.94,SW,227,1.0,1.0,53,0.00,,---,0.00,VWS V14.01,2013-11-10 11:07:00,
2013-11-10 06:08:00,50.2,33.7,29.94,West,267,13.0,13.0,53,0.00,,---,0.00,VWS V14.01,2013-11-10 11:08:00,
2013-11-10 06:09:00,50.2,33.7,29.94,SW,227,5.0,6.0,53,0.00,,---,0.00,VWS V14.01,2013-11-10 11:09:00,
2013-11-10 06:10:00,50.4,33.5,29.94,SSW,194,2.0,12.0,52,0.00,,---,0.00,VWS V14.01,2013-11-10 11:10:00,
2013-11-10 06:11:00,50.4,33.5,29.94,West,267,6.0,10.0,52,0.00,,---,0.00,VWS V14.01,2013-11-10 11:11:00,
2013-11-10 06:12:00,50.4,33.5,29.94,SW,225,7.0,10.0,52,0.00,,---,0.00,VWS V14.01,2013-11-10 11:12:00,
2013-11-10 06:13:00,50.5,33.5,29.94,SSW,209,3.0,8.0,52,0.00,,---,0.00,VWS V14.01,2013-11-10 11:13:00,
2013-11-10 06:14:00,50.5,33.5,29.94,West,273,11.0,11.0,52,0.00,,---,0.00,VWS V14.01,2013-11-10 11:14:00,
2013-11-10 06:15:00,50.5,33.5,29.94,SW,227,4.0,14.0,52,0.00,,---,0.00,VWS V14.01,2013-11-10 11:15:00,
2013-11-10 06:17:00,50.7,33.7,29.94,WSW,248,10.0,10.0,52,0.00,,---,0.00,VWS V14.01,2013-11-10 11:17:00,
2013-11-10 06:18:00,50.7,33.7,29.94,SSW,200,7.0,7.0,52,0.00,,---,0.00,VWS V14.01,2013-11-10 11:18:00,
2013-11-10 06:19:00,50.7,33.7,29.94,SW,214,5.0,6.0,52,0.00,,---,0.00,VWS V14.01,2013-11-10 11:19:00,
2013-11-10 06:20:00,50.7,33.7,29.94,WNW,298,1.0,3.0,52,0.00,,---,0.00,VWS V14.01,2013-11-10 11:20:00,
2013-11-10 06:22:00,50.7,33.7,29.94,SW,219,3.0,7.0,52,0.00,,---,0.00,VWS V14.01,2013-11-10 11:22:00,
2013-11-10 06:23:00,50.7,33.7,29.94,WSW,238,4.0,6.0,52,0.00,,---,0.00,VWS V14.01,2013-11-10 11:23:00,
2013-11-10 06:24:00,50.7,33.7,29.94,WSW,249,2.0,4.0,52,0.00,,---,0.00,VWS V14.01,2013-11-10 11:24:00,
2013-11-10 06:25:00,50.7,33.7,29.94,WSW,255,2.0,3.0,52,0.00,,---,0.00,VWS V14.01,2013-11-10 11:25:00,
2013-11-10 06:27:00,50.5,33.5,29.94,SSW,195,0.0,7.0,52,0.00,,---,0.00,VWS V14.01,2013-11-10 11:27:00,
2013-11-10 06:28:00,50.2,33.7,29.94,WNW,292,2.0,7.0,53,0.00,,---,0.00,VWS V14.01,2013-11-10 11:28:00,
2013-11-10 06:29:00,50.1,33.7,29.94,SW,227,4.0,4.0,53,0.00,,---,0.00,VWS V14.01,2013-11-10 11:29:00,
2013-11-10 06:30:00,49.9,33.5,29.94,West,270,3.0,4.0,53,0.00,,---,0.00,VWS V14.01,2013-11-10 11:30:00,
2013-11-10 06:32:00,49.9,33.5,29.94,WSW,246,0.0,5.0,53,0.00,,---,0.00,VWS V14.01,2013-11-10 11:32:00,
2013-11-10 06:33:00,49.9,33.9,29.94,WSW,250,15.0,15.0,54,0.00,,---,0.00,VWS V14.01,2013-11-10 11:33:00,
2013-11-10 06:34:00,49.9,33.9,29.94,SW,219,3.0,15.0,54,0.00,,---,0.00,VWS V14.01,2013-11-10 11:34:00,
2013-11-10 06:35:00,50.1,33.7,29.94,SSW,209,10.0,15.0,53,0.00,,---,0.00,VWS V14.01,2013-11-10 11:35:00,
2013-11-10 06:37:00,50.2,33.7,29.94,SW,217,0.0,5.0,53,0.00,,---,0.00,VWS V14.01,2013-11-10 11:37:00,
2013-11-10 06:38:00,50.2,33.7,29.94,SW,222,4.0,4.0,53,0.00,,---,0.00,VWS V14.01,2013-11-10 11:38:00,
2013-11-10 06:39:00,50.2,33.7,29.94,SSW,211,5.0,7.0,53,0.00,,---,0.00,VWS V14.01,2013-11-10 11:39:00,
2013-11-10 06:40:00,50.2,33.7,29.94,WSW,248,6.0,12.0,53,0.00,,---,0.00,VWS V14.01,2013-11-10 11:40:00,
2013-11-10 06:42:00,50.2,33.7,29.94,SW,223,4.0,9.0,53,0.00,,---,0.00,VWS V14.01,2013-11-10 11:42:00,
2013-11-10 06:43:00,50.2,33.7,29.94,SSW,213,3.0,7.0,53,0.00,,---,0.00,VWS V14.01,2013-11-10 11:43:00,
2013-11-10 06:44:00,50.2,33.7,29.94,SW,229,9.0,13.0,53,0.00,,---,0.00,VWS V14.01,2013-11-10 11:44:00,
2013-11-10 06:45:00,50.2,33.7,29.94,WSW,257,4.0,6.0,53,0.00,,---,0.00,VWS V14.01,2013-11-10 11:45:00,
2013-11-10 06:47:00,50.1,33.7,29.95,SW,223,2.0,4.0,53,0.00,,---,0.00,VWS V14.01,2013-11-10 11:47:00,
2013-11-10 06:48:00,50.1,33.7,29.95,SSW,200,2.0,4.0,53,0.00,,---,0.00,VWS V14.01,2013-11-10 11:48:00,
2013-11-10 06:49:00,50.2,33.7,29.95,SW,228,2.0,7.0,53,0.00,,---,0.00,VWS V14.01,2013-11-10 11:49:00,
2013-11-10 06:50:00,50.2,33.7,29.95,SW,228,3.0,4.0,53,0.00,,---,0.00,VWS V14.01,2013-11-10 11:50:00,
2013-11-10 06:52:00,50.1,34.1,29.95,WSW,242,2.0,3.0,54,0.00,,---,0.00,VWS V14.01,2013-11-10 11:52:00,
2013-11-10 06:53:00,49.9,33.9,29.95,WSW,256,8.0,11.0,54,0.00,,---,0.00,VWS V14.01,2013-11-10 11:53:00,
2013-11-10 06:54:00,49.8,33.8,29.95,WSW,238,3.0,3.0,54,0.00,,---,0.00,VWS V14.01,2013-11-10 11:54:00,
2013-11-10 06:55:00,49.8,34.3,29.95,WSW,238,2.0,4.0,55,0.00,,---,0.00,VWS V14.01,2013-11-10 11:55:00,
2013-11-10 06:57:00,49.8,33.8,29.95,SW,226,4.0,5.0,54,0.00,,---,0.00,VWS V14.01,2013-11-10 11:57:00,
2013-11-10 06:58:00,49.8,32.9,29.95,West,263,4.0,11.0,52,0.00,,---,0.00,VWS V14.01,2013-11-10 11:58:00,
2013-11-10 06:59:00,49.9,33.9,29.95,West,273,8.0,12.0,54,0.00,,---,0.00,VWS V14.01,2013-11-10 11:59:00,
2013-11-10 07:00:00,49.9,33.9,29.95,SW,222,12.0,12.0,54,0.00,,---,0.00,VWS V14.01,2013-11-10 12:00:00,
2013-11-10 07:02:00,50.1,33.7,29.95,SW,232,4.0,4.0,53,0.00,,---,0.00,VWS V14.01,2013-11-10 12:02:00,
2013-11-10 07:03:00,50.1,33.7,29.95,WSW,255,7.0,7.0,53,0.00,,---,0.00,VWS V14.01,2013-11-10 12:03:00,
2013-11-10 07:04:00,50.2,33.7,29.95,WSW,241,3.0,3.0,53,0.00,,---,0.00,VWS V14.01,2013-11-10 12:04:00,
2013-11-10 07:05:00,50.2,33.7,29.95,SW,221,3.0,6.0,53,0.00,,---,0.00,VWS V14.01,2013-11-10 12:05:00,
2013-11-10 07:06:00,50.4,33.9,29.95,West,263,12.0,12.0,53,0.00,,---,0.00,VWS V14.01,2013-11-10 12:06:00,
2013-11-10 07:07:00,50.5,34.0,29.95,WSW,247,0.0,0.0,53,0.00,,---,0.00,VWS V14.01,2013-11-10 12:07:00,
2013-11-10 07:08:00,50.5,34.0,29.95,West,263,0.0,4.0,53,0.00,,---,0.00,VWS V14.01,2013-11-10 12:08:00,
2013-11-10 07:10:00,50.5,33.5,29.95,SW,223,2.0,2.0,52,0.00,,---,0.00,VWS V14.01,2013-11-10 12:10:00,
2013-11-10 07:11:00,50.7,33.7,29.95,SSW,207,6.0,10.0,52,0.00,,---,0.00,VWS V14.01,2013-11-10 12:11:00,
2013-11-10 07:12:00,50.5,33.5,29.95,WSW,242,6.0,12.0,52,0.00,,---,0.00,VWS V14.01,2013-11-10 12:12:00,
2013-11-10 07:13:00,50.7,33.7,29.95,WSW,248,9.0,12.0,52,0.00,,---,0.00,VWS V14.01,2013-11-10 12:13:00,
2013-11-10 07:15:00,50.7,33.7,29.95,SW,216,5.0,15.0,52,0.00,,---,0.00,VWS V14.01,2013-11-10 12:15:00,
2013-11-10 07:16:00,50.8,33.8,29.95,West,260,5.0,11.0,52,0.00,,---,0.00,VWS V14.01,2013-11-10 12:16:00,
2013-11-10 07:17:00,50.8,33.8,29.95,SSW,196,3.0,5.0,52,0.00,,---,0.00,VWS V14.01,2013-11-10 12:17:00,
2013-11-10 07:18:00,50.8,33.8,29.95,SW,221,6.0,14.0,52,0.00,,---,0.00,VWS V14.01,2013-11-10 12:18:00,
2013-11-10 07:20:00,50.8,33.8,29.95,SW,226,15.0,15.0,52,0.00,,---,0.00,VWS V14.01,2013-11-10 12:20:00,
2013-11-10 07:21:00,50.8,33.8,29.95,West,265,14.0,24.0,52,0.00,,---,0.00,VWS V14.01,2013-11-10 12:21:00,
2013-11-10 07:22:00,51.0,33.5,29.95,West,263,4.0,11.0,51,0.00,,---,0.00,VWS V14.01,2013-11-10 12:22:00,
2013-11-10 07:23:00,51.0,34.0,29.95,SSW,213,3.0,11.0,52,0.00,,---,0.00,VWS V14.01,2013-11-10 12:23:00,
2013-11-10 07:24:00,51.1,33.6,29.95,SW,234,4.0,12.0,51,0.00,,---,0.00,VWS V14.01,2013-11-10 12:24:00,
2013-11-10 07:25:00,51.1,33.6,29.95,West,265,4.0,5.0,51,0.00,,---,0.00,VWS V14.01,2013-11-10 12:25:00,
2013-11-10 07:26:00,51.3,33.8,29.95,WSW,254,6.0,12.0,51,0.00,,---,0.00,VWS V14.01,2013-11-10 12:26:00,
2013-11-10 07:27:00,51.3,33.8,29.95,WSW,250,5.0,5.0,51,0.00,,---,0.00,VWS V14.01,2013-11-10 12:27:00,
2013-11-10 07:28:00,51.3,33.8,29.95,WSW,252,4.0,6.0,51,0.00,,---,0.00,VWS V14.01,2013-11-10 12:28:00,
2013-11-10 07:29:00,51.3,33.8,29.95,West,267,5.0,11.0,51,0.00,,---,0.00,VWS V14.01,2013-11-10 12:29:00,
2013-11-10 07:30:00,51.3,33.8,29.95,WNW,294,4.0,12.0,51,0.00,,---,0.00,VWS V14.01,2013-11-10 12:30:00,
2013-11-10 07:31:00,51.4,33.4,29.95,WNW,286,1.0,12.0,50,0.00,,---,0.00,VWS V14.01,2013-11-10 12:31:00,
2013-11-10 07:32:00,51.4,33.9,29.95,SSW,200,4.0,9.0,51,0.00,,---,0.00,VWS V14.01,2013-11-10 12:32:00,
2013-11-10 07:33:00,51.4,33.4,29.95,SSW,200,1.0,9.0,50,0.00,,---,0.00,VWS V14.01,2013-11-10 12:33:00,
2013-11-10 07:34:00,51.6,33.6,29.95,WSW,248,5.0,12.0,50,0.00,,---,0.00,VWS V14.01,2013-11-10 12:34:00,
2013-11-10 07:35:00,51.7,33.2,29.95,SSW,209,2.0,3.0,49,0.00,,---,0.00,VWS V14.01,2013-11-10 12:35:00,
2013-11-10 07:36:00,51.7,33.2,29.95,SSW,211,6.0,6.0,49,0.00,,---,0.00,VWS V14.01,2013-11-10 12:36:00,
2013-11-10 07:37:00,51.9,32.8,29.95,WSW,238,0.0,0.0,48,0.00,,---,0.00,VWS V14.01,2013-11-10 12:37:00,
2013-11-10 07:38:00,52.0,32.9,29.95,NNW,329,4.0,5.0,48,0.00,,---,0.00,VWS V14.01,2013-11-10 12:38:00,
2013-11-10 07:39:00,52.0,32.9,29.95,WSW,254,5.0,13.0,48,0.00,,---,0.00,VWS V14.01,2013-11-10 12:39:00,
2013-11-10 07:40:00,52.2,33.1,29.95,WSW,248,2.0,4.0,48,0.00,,---,0.00,VWS V14.01,2013-11-10 12:40:00,
2013-11-10 07:41:00,52.2,33.1,29.95,WSW,251,4.0,4.0,48,0.00,,---,0.00,VWS V14.01,2013-11-10 12:41:00,
2013-11-10 07:42:00,52.2,33.1,29.95,WNW,283,1.0,5.0,48,0.00,,---,0.00,VWS V14.01,2013-11-10 12:42:00,
2013-11-10 07:43:00,52.3,33.2,29.95,WSW,240,12.0,12.0,48,0.00,,---,0.00,VWS V14.01,2013-11-10 12:43:00,
2013-11-10 07:44:00,52.3,33.2,29.95,West,279,14.0,14.0,48,0.00,,---,0.00,VWS V14.01,2013-11-10 12:44:00,
2013-11-10 07:45:00,52.5,32.9,29.95,SW,219,2.0,5.0,47,0.00,,---,0.00,VWS V14.01,2013-11-10 12:45:00,
2013-11-10 07:46:00,52.6,33.0,29.95,SW,219,1.0,1.0,47,0.00,,---,0.00,VWS V14.01,2013-11-10 12:46:00,
2013-11-10 07:48:00,52.8,33.7,29.95,SSW,208,0.0,4.0,48,0.00,,---,0.00,VWS V14.01,2013-11-10 12:48:00,
2013-11-10 07:49:00,52.9,33.8,29.95,West,262,0.0,0.0,48,0.00,,---,0.00,VWS V14.01,2013-11-10 12:49:00,
2013-11-10 07:51:00,52.9,33.2,29.95,WSW,244,2.0,12.0,47,0.00,,---,0.00,VWS V14.01,2013-11-10 12:51:00,
2013-11-10 07:53:00,52.9,33.2,29.95,WSW,257,12.0,13.0,47,0.00,,---,0.00,VWS V14.01,2013-11-10 12:53:00,
2013-11-10 07:54:00,53.1,32.9,29.95,SW,233,11.0,11.0,46,0.00,,---,0.00,VWS V14.01,2013-11-10 12:54:00,
2013-11-10 07:56:00,53.1,32.9,29.95,WSW,240,9.0,12.0,46,0.00,,---,0.00,VWS V14.01,2013-11-10 12:56:00,
2013-11-10 07:58:00,53.3,32.5,29.95,WSW,250,12.0,12.0,45,0.00,,---,0.00,VWS V14.01,2013-11-10 12:58:00,
2013-11-10 07:59:00,53.3,33.1,29.95,SW,218,12.0,15.0,46,0.00,,---,0.00,VWS V14.01,2013-11-10 12:59:00,
2013-11-10 08:01:00,53.6,32.8,29.95,WSW,255,5.0,13.0,45,0.00,,---,0.00,VWS V14.01,2013-11-10 13:01:00,
2013-11-10 08:03:00,53.8,33.0,29.95,West,271,3.0,7.0,45,0.00,,---,0.00,VWS V14.01,2013-11-10 13:03:00,
2013-11-10 08:04:00,53.9,33.1,29.95,SW,220,7.0,7.0,45,0.00,,---,0.00,VWS V14.01,2013-11-10 13:04:00,
2013-11-10 08:06:00,53.9,33.1,29.95,WSW,254,5.0,9.0,45,0.00,,---,0.00,VWS V14.01,2013-11-10 13:06:00,
2013-11-10 08:08:00,53.8,33.0,29.95,WSW,246,6.0,9.0,45,0.00,,---,0.00,VWS V14.01,2013-11-10 13:08:00,
2013-11-10 08:09:00,53.8,33.0,29.95,WSW,254,7.0,17.0,45,0.00,,---,0.00,VWS V14.01,2013-11-10 13:09:00,
2013-11-10 08:11:00,53.9,33.1,29.95,SSW,205,9.0,9.0,45,0.00,,---,0.00,VWS V14.01,2013-11-10 13:11:00,
2013-11-10 08:12:00,54.1,33.2,29.95,SSW,200,3.0,10.0,45,0.00,,---,0.00,VWS V14.01,2013-11-10 13:12:00,
2013-11-10 08:13:00,54.2,33.3,29.95,WSW,246,3.0,12.0,45,0.00,,---,0.00,VWS V14.01,2013-11-10 13:13:00,
2013-11-10 08:15:00,54.2,32.8,29.95,WNW,288,5.0,11.0,44,0.00,,---,0.00,VWS V14.01,2013-11-10 13:15:00,
2013-11-10 08:16:00,54.4,33.0,29.95,NNW,346,5.0,10.0,44,0.00,,---,0.00,VWS V14.01,2013-11-10 13:16:00,
2013-11-10 08:17:00,54.4,33.0,29.95,NNW,329,3.0,10.0,44,0.00,,---,0.00,VWS V14.01,2013-11-10 13:17:00,
2013-11-10 08:18:00,54.4,33.0,29.95,SSW,210,4.0,13.0,44,0.00,,---,0.00,VWS V14.01,2013-11-10 13:18:00,
2013-11-10 08:20:00,54.4,33.5,29.95,WSW,254,11.0,11.0,45,0.00,,---,0.00,VWS V14.01,2013-11-10 13:20:00,
2013-11-10 08:22:00,54.5,33.0,29.95,WSW,247,12.0,12.0,44,0.00,,---,0.00,VWS V14.01,2013-11-10 13:22:00,
2013-11-10 08:23:00,54.7,33.2,29.95,SW,229,19.0,19.0,44,0.00,,---,0.00,VWS V14.01,2013-11-10 13:23:00,
2013-11-10 08:25:00,54.7,33.2,29.95,SW,221,1.0,7.0,44,0.00,,---,0.00,VWS V14.01,2013-11-10 13:25:00,
2013-11-10 08:27:00,54.7,32.7,29.95,SW,225,9.0,11.0,43,0.00,,---,0.00,VWS V14.01,2013-11-10 13:27:00,
2013-11-10 08:28:00,54.8,33.3,29.95,WSW,252,4.0,15.0,44,0.00,,---,0.00,VWS V14.01,2013-11-10 13:28:00,
2013-11-10 08:30:00,55.1,33.0,29.95,SSW,208,4.0,12.0,43,0.00,,---,0.00,VWS V14.01,2013-11-10 13:30:00,
2013-11-10 08:32:00,55.0,32.9,29.95,SW,229,12.0,12.0,43,0.00,,---,0.00,VWS V14.01,2013-11-10 13:32:00,
2013-11-10 08:33:00,55.0,34.1,29.95,SW,219,10.0,18.0,45,0.00,,---,0.00,VWS V14.01,2013-11-10 13:33:00,
2013-11-10 08:35:00,55.0,33.5,29.95,South,188,2.0,9.0,44,0.00,,---,0.00,VWS V14.01,2013-11-10 13:35:00,
2013-11-10 08:37:00,55.1,33.0,29.95,SSW,212,10.0,12.0,43,0.00,,---,0.00,VWS V14.01,2013-11-10 13:37:00,
2013-11-10 08:38:00,55.1,33.0,29.95,SSW,201,4.0,6.0,43,0.00,,---,0.00,VWS V14.01,2013-11-10 13:38:00,
2013-11-10 08:40:00,55.4,33.3,29.95,WSW,256,10.0,12.0,43,0.00,,---,0.00,VWS V14.01,2013-11-10 13:40:00,
2013-11-10 08:42:00,55.4,32.7,29.95,SSW,203,5.0,17.0,42,0.00,,---,0.00,VWS V14.01,2013-11-10 13:42:00,
2013-11-10 08:43:00,55.3,32.6,29.95,SSW,209,9.0,10.0,42,0.00,,---,0.00,VWS V14.01,2013-11-10 13:43:00,
2013-11-10 08:45:00,55.4,32.1,29.95,West,265,3.0,14.0,41,0.00,,---,0.00,VWS V14.01,2013-11-10 13:45:00,
2013-11-10 08:47:00,55.6,32.9,29.95,West,260,11.0,12.0,42,0.00,,---,0.00,VWS V14.01,2013-11-10 13:47:00,
2013-11-10 08:48:00,55.6,32.9,29.95,West,271,6.0,12.0,42,0.00,,---,0.00,VWS V14.01,2013-11-10 13:48:00,
2013-11-10 08:50:00,55.7,33.0,29.95,SW,234,0.0,14.0,42,0.00,,---,0.00,VWS V14.01,2013-11-10 13:50:00,
2013-11-10 08:52:00,55.9,33.2,29.95,SW,223,10.0,13.0,42,0.00,,---,0.00,VWS V14.01,2013-11-10 13:52:00,
2013-11-10 08:53:00,55.9,33.2,29.95,West,269,6.0,13.0,42,0.00,,---,0.00,VWS V14.01,2013-11-10 13:53:00,
2013-11-10 08:55:00,56.2,32.8,29.95,SW,226,7.0,13.0,41,0.00,,---,0.00,VWS V14.01,2013-11-10 13:55:00,
2013-11-10 08:57:00,55.9,32.6,29.95,SW,228,5.0,7.0,41,0.00,,---,0.00,VWS V14.01,2013-11-10 13:57:00,
2013-11-10 08:58:00,55.9,32.6,29.95,SW,235,10.0,10.0,41,0.00,,---,0.00,VWS V14.01,2013-11-10 13:58:00,
2013-11-10 08:59:00,56.0,32.7,29.95,SW,221,3.0,11.0,41,0.00,,---,0.00,VWS V14.01,2013-11-10 13:59:00,
2013-11-10 09:00:00,56.3,32.9,29.95,West,261,10.0,16.0,41,0.00,,---,0.00,VWS V14.01,2013-11-10 14:00:00,
2013-11-10 09:03:00,56.3,32.3,29.95,SW,225,10.0,18.0,40,0.00,,---,0.00,VWS V14.01,2013-11-10 14:03:00,
2013-11-10 09:04:00,56.2,32.2,29.95,West,279,16.0,17.0,40,0.00,,---,0.00,VWS V14.01,2013-11-10 14:04:00,
2013-11-10 09:05:00,56.3,31.7,29.95,SW,221,15.0,20.0,39,0.00,,---,0.00,VWS V14.01,2013-11-10 14:05:00,
2013-11-10 09:08:00,56.2,31.6,29.95,SW,223,9.0,18.0,39,0.00,,---,0.00,VWS V14.01,2013-11-10 14:08:00,
2013-11-10 09:09:00,56.0,31.4,29.95,SW,217,4.0,18.0,39,0.00,,---,0.00,VWS V14.01,2013-11-10 14:09:00,
2013-11-10 09:10:00,55.9,32.0,29.95,West,273,11.0,11.0,40,0.00,,---,0.00,VWS V14.01,2013-11-10 14:10:00,
2013-11-10 09:12:00,55.9,32.0,29.95,SW,227,5.0,10.0,40,0.00,,---,0.00,VWS V14.01,2013-11-10 14:12:00,
2013-11-10 09:13:00,56.0,32.0,29.95,West,266,4.0,10.0,40,0.00,,---,0.00,VWS V14.01,2013-11-10 14:13:00,
2013-11-10 09:14:00,56.2,32.8,29.95,West,273,6.0,10.0,41,0.00,,---,0.00,VWS V14.01,2013-11-10 14:14:00,
2013-11-10 09:15:00,56.6,32.0,29.95,WNW,286,5.0,9.0,39,0.00,,---,0.00,VWS V14.01,2013-11-10 14:15:00,
2013-11-10 09:17:00,56.9,31.6,29.94,West,272,5.0,12.0,38,0.00,,---,0.00,VWS V14.01,2013-11-10 14:17:00,
2013-11-10 09:18:00,56.9,31.6,29.94,SW,220,2.0,12.0,38,0.00,,---,0.00,VWS V14.01,2013-11-10 14:18:00,
2013-11-10 09:19:00,57.0,31.7,29.94,WSW,240,5.0,13.0,38,0.00,,---,0.00,VWS V14.01,2013-11-10 14:19:00,
2013-11-10 09:20:00,57.0,31.7,29.94,SW,228,6.0,7.0,38,0.00,,---,0.00,VWS V14.01,2013-11-10 14:20:00,
2013-11-10 09:22:00,57.2,32.5,29.94,SW,221,4.0,6.0,39,0.00,,---,0.00,VWS V14.01,2013-11-10 14:22:00,
2013-11-10 09:23:00,57.3,32.6,29.94,SW,234,4.0,6.0,39,0.00,,---,0.00,VWS V14.01,2013-11-10 14:23:00,
2013-11-10 09:24:00,57.5,32.1,29.94,SW,232,3.0,7.0,38,0.00,,---,0.00,VWS V14.01,2013-11-10 14:24:00,
2013-11-10 09:25:00,57.3,30.6,29.94,SW,224,13.0,14.0,36,0.00,,---,0.00,VWS V14.01,2013-11-10 14:25:00,
2013-11-10 09:28:00,57.2,31.2,29.94,SW,227,10.0,11.0,37,0.00,,---,0.00,VWS V14.01,2013-11-10 14:28:00,
2013-11-10 09:29:00,57.2,30.5,29.94,SW,230,12.0,12.0,36,0.00,,---,0.00,VWS V14.01,2013-11-10 14:29:00,
2013-11-10 09:30:00,57.0,31.0,29.94,West,263,14.0,15.0,37,0.00,,---,0.00,VWS V14.01,2013-11-10 14:30:00,
2013-11-10 09:33:00,57.0,30.3,29.93,WNW,287,4.0,11.0,36,0.00,,---,0.00,VWS V14.01,2013-11-10 14:33:00,
2013-11-10 09:34:00,57.2,31.2,29.93,SW,231,7.0,13.0,37,0.00,,---,0.00,VWS V14.01,2013-11-10 14:34:00,
2013-11-10 09:36:00,57.6,30.2,29.93,WSW,249,2.0,7.0,35,0.00,,---,0.00,VWS V14.01,2013-11-10 14:36:00,
2013-11-10 09:38:00,58.0,31.2,29.93,West,259,1.0,7.0,36,0.00,,---,0.00,VWS V14.01,2013-11-10 14:38:00,
2013-11-10 09:39:00,57.8,30.4,29.93,West,265,6.0,9.0,35,0.00,,---,0.00,VWS V14.01,2013-11-10 14:39:00,
2013-11-10 09:41:00,57.8,30.4,29.93,SSW,204,10.0,14.0,35,0.00,,---,0.00,VWS V14.01,2013-11-10 14:41:00,
2013-11-10 09:43:00,57.8,30.4,29.93,WSW,248,14.0,14.0,35,0.00,,---,0.00,VWS V14.01,2013-11-10 14:43:00,
2013-11-10 09:44:00,58.0,30.5,29.93,West,269,11.0,13.0,35,0.00,,---,0.00,VWS V14.01,2013-11-10 14:44:00,
2013-11-10 09:46:00,57.8,30.4,29.93,WSW,243,3.0,5.0,35,0.00,,---,0.00,VWS V14.01,2013-11-10 14:46:00,
2013-11-10 09:48:00,57.6,30.2,29.94,West,271,12.0,13.0,35,0.00,,---,0.00,VWS V14.01,2013-11-10 14:48:00,
2013-11-10 09:49:00,57.6,28.7,29.94,West,277,12.0,12.0,33,0.00,,---,0.00,VWS V14.01,2013-11-10 14:49:00,
2013-11-10 09:51:00,57.6,29.5,29.94,WNW,286,5.0,9.0,34,0.00,,---,0.00,VWS V14.01,2013-11-10 14:51:00,
2013-11-10 09:53:00,58.0,29.8,29.94,West,270,10.0,10.0,34,0.00,,---,0.00,VWS V14.01,2013-11-10 14:53:00,
2013-11-10 09:54:00,57.8,29.6,29.94,NNE,21,3.0,10.0,34,0.00,,---,0.00,VWS V14.01,2013-11-10 14:54:00,
2013-11-10 09:56:00,58.0,30.5,29.94,SSW,211,18.0,20.0,35,0.00,,---,0.00,VWS V14.01,2013-11-10 14:56:00,
2013-11-10 09:58:00,57.8,28.2,29.94,West,268,8.0,9.0,32,0.00,,---,0.00,VWS V14.01,2013-11-10 14:58:00,
2013-11-10 09:59:00,57.8,27.4,29.94,West,275,6.0,15.0,31,0.00,,---,0.00,VWS V14.01,2013-11-10 14:59:00,
2013-11-10 10:01:00,57.6,30.2,29.94,SW,223,18.0,24.0,35,0.00,,---,0.00,VWS V14.01,2013-11-10 15:01:00,
2013-11-10 10:03:00,57.5,28.6,29.93,WSW,250,14.0,20.0,33,0.00,,---,0.00,VWS V14.01,2013-11-10 15:03:00,
2013-11-10 10:04:00,57.3,28.5,29.93,SW,227,7.0,20.0,33,0.00,,---,0.00,VWS V14.01,2013-11-10 15:04:00,